Date String (YYYY-MM-DD hh:mm:ss) UTC,Instrument flags,Ambient pressure (hPa),Sample flow (lpm),Bypass flow (lpm),Sample temperature (°C),Ambient temperature (°C),ASC tube jacket temperature (°C),LED temperature (°C),Box temperature (°C),Sample RH (%),Span deviation,Mass concentration (μg/m³),Mass concentration (μg/m³),Mass concentration (μg/m³)
DateTimeUTC,F1_M11,P_M11,Q1_M11,Q2_M11,T1_M11,T2_M11,T3_M11,T4_M11,T5_M11,U1_M11,ZSPAN_M11,X0_M11,X2_M11,X1_M11
2023-01-08 04:00:00,,0829.9,5.00,0.00,24.3,22.9,00.0,33.2,26.2,13.4,-000.0,0024.45,0019.79,0019.18
2023-01-08 04:01:00,,0829.9,4.99,0.00,24.3,22.9,00.0,33.2,26.1,13.4,-000.1,0023.96,0019.44,0018.84
2023-01-08 04:02:00,,0829.9,4.99,0.00,24.3,22.9,00.0,33.2,26.1,13.4,0000.0,0023.39,0019.16,0018.57
2023-01-08 04:03:00,,0829.8,5.00,0.00,24.3,22.9,00.0,33.2,26.1,13.4,0000.7,0023.15,0018.98,0018.41
2023-01-08 04:04:00,,0829.9,5.00,0.00,24.3,22.9,00.0,33.2,26.1,13.4,0000.7,0022.95,0018.84,0018.29
2023-01-08 04:05:00,,0829.9,5.00,0.00,24.3,22.8,00.0,33.2,26.1,13.4,0000.8,0022.77,0018.70,0018.16
2023-01-08 04:06:00,,0829.9,5.00,0.00,24.3,22.8,00.0,33.2,26.1,13.5,0000.6,0022.63,0018.61,0018.11
2023-01-08 04:07:00,,0829.9,4.99,0.00,24.3,22.7,00.0,33.2,26.0,13.4,0000.7,0022.49,0018.62,0018.15
2023-01-08 04:08:00,,0829.9,5.01,0.00,24.2,22.7,00.0,33.2,26.0,13.4,0000.6,0022.85,0018.62,0018.10
2023-01-08 04:09:00,,0829.9,5.01,0.00,24.2,22.7,00.0,33.1,26.0,13.4,0000.7,0022.93,0018.60,0018.04
2023-01-08 04:10:00,,0829.8,5.00,0.00,24.2,22.7,00.0,33.1,26.0,13.3,0000.6,0022.69,0018.56,0017.99
2023-01-08 04:11:00,,0829.9,4.99,0.00,24.2,22.7,00.0,33.1,26.0,13.3,0000.6,0022.05,0018.46,0017.91
2023-01-08 04:12:00,,0829.9,5.00,0.00,24.2,22.7,00.0,33.1,26.0,13.3,0000.4,0021.74,0018.36,0017.81
2023-01-08 04:13:00,,0829.8,5.00,0.00,24.2,22.7,00.0,33.1,26.0,13.3,0000.4,0021.56,0018.22,0017.67
2023-01-08 04:14:00,,0829.9,5.00,0.00,24.2,22.7,00.0,33.1,26.0,13.2,0000.2,0021.63,0018.07,0017.53
2023-01-08 04:15:00,,0829.8,5.00,0.00,24.2,22.7,00.0,33.1,26.0,13.2,0000.3,0021.60,0017.93,0017.37
2023-01-08 04:16:00,,0829.8,4.99,0.00,24.2,22.7,00.0,33.1,26.0,13.1,0000.1,0021.53,0017.85,0017.29
2023-01-08 04:17:00,,0829.8,5.00,0.00,24.2,22.7,00.0,33.1,26.0,13.2,0000.3,0021.34,0017.69,0017.12
2023-01-08 04:18:00,,0829.8,5.00,0.00,24.1,22.7,00.0,33.1,25.9,13.2,0000.5,0021.11,0017.46,0016.90
2023-01-08 04:19:00,,0829.9,5.00,0.00,24.1,22.7,00.0,33.1,26.0,13.2,0000.4,0020.56,0017.33,0016.83
2023-01-08 04:20:00,,0829.9,5.00,0.00,24.1,22.7,00.0,33.0,26.0,13.2,0000.6,0020.32,0017.26,0016.80
2023-01-08 04:21:00,,0830.0,5.00,0.00,24.1,22.7,00.0,33.0,25.9,13.2,0000.7,0020.28,0017.19,0016.72
2023-01-08 04:22:00,,0829.9,5.00,0.00,24.1,22.7,00.0,33.0,25.9,13.1,0000.7,0020.22,0017.09,0016.62
2023-01-08 04:23:00,,0829.9,5.00,0.00,24.1,22.7,00.0,33.0,25.9,13.0,0000.6,0019.98,0016.94,0016.46
2023-01-08 04:24:00,,0829.9,5.00,0.00,24.1,22.7,00.0,33.0,25.9,13.0,0000.6,0019.77,0016.75,0016.28
2023-01-08 04:25:00,,0829.9,5.00,0.00,24.1,22.7,00.0,33.0,25.9,12.9,0000.7,0019.29,0016.49,0016.03
2023-01-08 04:26:00,,0829.9,5.00,0.00,24.1,22.7,00.0,33.0,25.9,13.0,0000.9,0018.76,0016.28,0015.84
2023-01-08 04:27:00,,0829.9,5.00,0.00,24.1,22.7,00.0,33.0,25.9,12.9,0001.5,0018.49,0016.08,0015.64
2023-01-08 04:28:00,,0829.9,5.00,0.00,24.1,22.6,00.0,33.0,25.9,12.9,0001.5,0018.26,0015.88,0015.45
2023-01-08 04:29:00,,0829.9,5.00,0.00,24.1,22.6,00.0,33.0,25.9,12.9,0001.5,0018.31,0015.74,0015.28
2023-01-08 04:30:00,,0829.9,5.00,0.00,24.1,22.6,00.0,33.0,25.9,12.8,0002.1,0018.03,0015.55,0015.07
2023-01-08 04:31:00,,0830.0,5.00,0.00,24.1,22.6,00.0,33.0,25.8,12.9,0002.1,0017.86,0015.39,0014.88
2023-01-08 04:32:00,,0830.0,5.00,0.00,24.0,22.6,00.0,32.9,25.8,12.8,0002.3,0017.74,0015.25,0014.72
2023-01-08 04:33:00,,0830.0,4.99,0.00,24.0,22.5,00.0,32.9,25.7,12.8,0002.5,0018.13,0015.12,0014.58
2023-01-08 04:34:00,,0830.0,4.99,0.00,24.0,22.6,00.0,32.9,25.8,12.8,0002.7,0018.06,0015.02,0014.49
2023-01-08 04:35:00,,0830.0,5.00,0.00,24.0,22.5,00.0,32.9,25.8,12.8,0002.8,0018.02,0014.95,0014.40
2023-01-08 04:36:00,,0830.0,5.00,0.00,24.0,22.5,00.0,32.9,25.7,12.8,0002.9,0018.50,0014.95,0014.37
2023-01-08 04:37:00,,0830.0,5.00,0.00,24.0,22.5,00.0,32.9,25.8,12.8,0002.5,0018.83,0014.87,0014.28
2023-01-08 04:38:00,,0829.9,5.00,0.00,24.0,22.5,00.0,32.9,25.8,12.8,0002.3,0019.22,0014.84,0014.22
2023-01-08 04:39:00,,0829.9,5.00,0.00,24.0,22.5,00.0,32.9,25.7,12.8,0002.2,0019.36,0014.91,0014.25
2023-01-08 04:40:00,,0829.9,5.00,0.00,24.0,22.5,00.0,32.9,25.7,12.8,0002.0,0019.18,0014.92,0014.27
2023-01-08 04:41:00,,0829.9,4.99,0.00,24.0,22.5,00.0,32.9,25.7,12.8,0001.5,0019.09,0014.89,0014.26
2023-01-08 04:42:00,,0829.8,5.00,0.00,24.0,22.5,00.0,32.9,25.7,12.7,0001.5,0019.00,0014.84,0014.21
2023-01-08 04:43:00,,0829.9,4.99,0.00,24.0,22.5,00.0,32.9,25.7,12.7,0001.2,0019.07,0014.81,0014.19
2023-01-08 04:44:00,,0829.9,4.99,0.00,24.0,22.5,00.0,32.9,25.7,12.7,0001.0,0018.49,0014.75,0014.14
2023-01-08 04:45:00,,0830.0,5.01,0.00,24.0,22.5,00.0,32.9,25.7,12.6,0000.6,0018.41,0014.69,0014.08
2023-01-08 04:46:00,,0829.9,5.01,0.00,24.0,22.5,00.0,32.9,25.7,12.6,0000.7,0018.68,0014.68,0014.06
2023-01-08 04:47:00,,0829.9,5.01,0.00,24.0,22.5,00.0,32.9,25.7,12.6,0000.5,0018.29,0014.65,0014.05
2023-01-08 04:48:00,,0829.9,5.00,0.00,23.9,22.5,00.0,32.8,25.7,12.5,0000.6,0017.87,0014.61,0014.01
2023-01-08 04:49:00,,0830.0,5.00,0.00,23.9,22.5,00.0,32.8,25.7,12.5,0000.6,0017.42,0014.53,0013.94
2023-01-08 04:50:00,,0830.0,5.00,0.00,23.9,22.5,00.0,32.8,25.7,12.5,0000.9,0017.19,0014.40,0013.86
2023-01-08 04:51:00,,0830.0,5.00,0.00,23.9,22.5,00.0,32.8,25.7,12.5,0001.0,0017.08,0014.32,0013.79
2023-01-08 04:52:00,,0830.0,5.00,0.00,23.9,22.5,00.0,32.8,25.6,12.4,0000.9,0016.93,0014.18,0013.66
2023-01-08 04:53:00,,0830.0,5.00,0.00,23.9,22.5,00.0,32.8,25.6,12.4,0000.8,0016.86,0014.04,0013.51
2023-01-08 04:54:00,,0829.9,5.00,0.00,23.9,22.4,00.0,32.8,25.6,12.4,0001.0,0016.47,0013.81,0013.32
2023-01-08 04:55:00,,0829.9,5.00,0.00,23.9,22.4,00.0,32.8,25.6,12.4,0000.9,0016.19,0013.65,0013.18
2023-01-08 04:56:00,,0829.9,5.00,0.00,23.8,22.4,00.0,32.8,25.6,12.4,0001.3,0016.02,0013.49,0013.02
2023-01-08 04:57:00,,0829.9,5.03,0.00,23.8,22.4,00.0,32.8,25.6,12.4,0001.2,0015.47,0013.25,0012.80
2023-01-08 04:58:00,,0829.9,5.00,0.00,23.8,22.3,00.0,32.8,25.5,12.4,0001.5,0015.15,0013.01,0012.56
2023-01-08 04:59:00,,0829.9,5.00,0.00,23.8,22.3,00.0,32.7,25.5,12.5,0001.4,0015.09,0012.89,0012.42
